Simultaneous Nadir Overpasses (SNOs) Predictions

Prediction of SNOs between AQUA and NOAA-19 Satellite Orbit:

Table of predicted SNOs for the next 14.0 days since TLE Epoch: 2/12/2022
Index Date (AQUA) Time (AQUA) Lat,Lon (AQUA) SZA (AQUA ) Date (NOAA-19) Time (NOAA-19) Lat,Lon (NOAA-19) SZA (NOAA-19 ) Distance(km) Time Diff (sec)
1 02/13/2022 16:40:34 77.86, -87.97 91.80 02/13/2022 16:39:24 77.78, -89.60 91.88 39.28 70
2 02/13/2022 17:30:03 -77.99, 79.05 88.04 02/13/2022 17:30:13 -78.02, 79.03 88.02 3.20 10
3 02/15/2022 23:03:44 78.01, 175.58 91.22 02/15/2022 23:03:20 78.01, 175.75 91.21 3.85 24
4 02/15/2022 23:53:10 -78.01, -16.79 88.80 02/15/2022 23:54:15 -78.03, -16.86 88.80 2.74 65
5 02/18/2022 04:37:22 -77.95, -87.55 89.65 02/18/2022 04:36:19 -77.95, -87.73 89.61 4.19 63
6 02/18/2022 05:26:50 77.99, 79.88 90.40 02/18/2022 05:27:22 78.00, 79.78 90.41 2.37 32
7 02/20/2022 11:00:29 -77.99, 176.48 90.40 02/20/2022 11:00:20 -77.99, 176.56 90.41 1.80 9
8 02/22/2022 16:34:08 77.96, -86.78 88.75 02/22/2022 16:33:26 77.97, -86.74 88.77 1.44 42
9 02/22/2022 17:23:35 -78.00, 80.66 91.21 02/22/2022 17:24:22 -77.99, 80.63 91.24 1.88 47
10 02/24/2022 22:07:40 -77.67, 11.09 92.45 02/24/2022 22:06:33 -77.63, 8.26 92.23 67.49 67
11 02/24/2022 22:57:14 77.99, 177.32 87.95 02/24/2022 22:57:27 77.99, 177.44 87.94 2.58 13



Historial Predications of SNOs between AQUA and NOAA-19
